Bryce Canyon, UT

3:40 AM MDT on October 15, 2019 (GMT -0600)
Bryce Canyon

Weather History for KBCE - August, 2019

Change the Weather History Date:

Tuesday, August 27, 2019

  Actual Average Record
Temperature  
Mean Temperature 63 °F -  
Max Temperature 86 °F 74 °F 86 °F (2001)
Min Temperature 42 °F 42 °F 28 °F (1978)
Degree Days  
Heating Degree Days 2    
Growing Degree Days 13 (Base 50)    
Moisture  
Dew Point 29 °F    
Average Humidity 30    
Maximum Humidity 62    
Minimum Humidity 14    
Precipitation  
Precipitation 0.00 in - - ()
Sea Level Pressure  
Sea Level Pressure 29.96 in    
Wind  
Wind Speed 7 mph (NW)    
Max Wind Speed 15 mph    
Max Gust Speed 24 mph    
Visibility 10 miles    
Events      
Averages and records for this station are not official NWS values.
T = Trace of Precipitation, MM = Missing Value Source: NWS Daily Summary

Daily Weather History Graph

Daily Weather History Graph

Search for Another Location

Airport or City:

Astronomy

Aug. 27, 2019 Rise Set
Actual Time 6:54 AM MDT 8:05 PM MDT
Civil Twilight 6:27 AM MDT 8:32 PM MDT
Nautical Twilight 5:54 AM MDT 9:04 PM MDT
Astronomical Twilight 5:21 AM MDT 9:38 PM MDT
Moon 3:27 AM MDT (8/27) 6:25 PM MDT (8/27)
Length of Visible Light 14h 05m
Length of Day
13h 10m
Waning Crescent, 10% of the Moon is Illuminated
Aug 27
Waning Crescent
Aug 30
New
Sep 5
First Quarter
Sep 13
Full
Sep 21
Last Quarter

Hourly Weather History & Observations

Time (MDT) Temp. Windchill Dew Point Humidity Pressure Visibility Wind Dir Wind Speed Gust Speed Precip Events Conditions
12:53 AM 52.0 °F - 25.0 °F 35% 29.94 in 10.0 mi WNW 10.4 mph - N/A   Clear
1:53 AM 55.0 °F - 27.0 °F 34% 29.92 in 10.0 mi NW 10.4 mph - N/A   Clear
2:53 AM 48.9 °F - 26.1 °F 41% 29.94 in 10.0 mi Variable 3.5 mph - N/A   Clear
3:53 AM 46.9 °F - 27.0 °F 46% 29.94 in 10.0 mi Calm Calm - N/A   Clear
4:53 AM 44.1 °F 41.5 °F 28.0 °F 53% 29.95 in 10.0 mi West 4.6 mph - N/A   Clear
5:53 AM 43.0 °F 40.3 °F 28.9 °F 58% 29.97 in 10.0 mi WNW 4.6 mph - N/A   Clear
6:53 AM 42.1 °F 36.6 °F 30.0 °F 62% 29.99 in 5.0 mi WNW 9.2 mph - N/A   Haze
7:53 AM 50.0 °F - 30.9 °F 48% 30.00 in 10.0 mi Calm Calm - N/A   Clear
8:53 AM 62.1 °F - 28.9 °F 29% 29.98 in 10.0 mi Calm Calm - N/A   Clear
9:53 AM 70.0 °F - 30.0 °F 23% 29.99 in 10.0 mi NE 3.5 mph - N/A   Clear
10:53 AM 75.0 °F - 30.0 °F 19% 29.98 in 10.0 mi ENE 4.6 mph - N/A   Clear
11:53 AM 79.0 °F - 32.0 °F 18% 29.98 in 10.0 mi NNE 5.8 mph - N/A   Clear
12:53 PM 82.0 °F - 28.9 °F 14% 29.96 in 10.0 mi North 5.8 mph - N/A   Clear
1:53 PM 84.0 °F - 28.9 °F 14% 29.92 in 10.0 mi NW 12.7 mph - N/A   Clear
2:53 PM 84.9 °F - 30.9 °F 14% 29.94 in 10.0 mi WNW 15.0 mph 24.2 mph N/A   Clear
3:53 PM 84.9 °F - 30.0 °F 14% 29.93 in 10.0 mi North - - N/A   Clear
4:53 PM 84.9 °F - 30.0 °F 14% 29.93 in 10.0 mi West 15.0 mph 20.7 mph N/A   Clear
5:53 PM 84.0 °F - 28.9 °F 14% 29.92 in 10.0 mi NW 9.2 mph 19.6 mph N/A   Clear
6:53 PM 82.0 °F - 28.9 °F 14% 29.94 in 10.0 mi WNW 11.5 mph - N/A   Clear
7:53 PM 75.9 °F - 27.0 °F 16% 29.94 in 10.0 mi NW 9.2 mph - N/A   Clear
8:53 PM 69.1 °F - 26.1 °F 20% 29.94 in 10.0 mi NNW 11.5 mph - N/A   Clear
9:53 PM 61.0 °F - 27.0 °F 27% 29.97 in 10.0 mi NNE 6.9 mph - N/A   Clear
10:53 PM 54.0 °F - 30.0 °F 40% 29.98 in 10.0 mi WSW 4.6 mph - N/A   Clear
11:53 PM 51.1 °F - 28.9 °F 43% 29.99 in 10.0 mi WSW 5.8 mph - N/A   Clear